Regional Weather Roundup
Issued by NWS Midland/Odessa, TX

Skip options and go directly to product.
Home | Oldest Version | Previous Version | Current Version | All | Text Only | Save Text | Print | Product List | Glossary On

Skip product version selection by date and time.   
770
ASUS44 KMAF 250210
RWRMAF
MIDLAND AREA WEATHER ROUNDUP
NATIONAL WEATHER SERVICE MIDLAND TX
900 PM CDT FRI OCT 24 2014

...IN SOUTHWEST TEXAS AND SOUTHEAST NEW MEXICO...

CITY           SKY/WX    TMP DP  RH WIND       PRES   REMARKS
ALPINE         CLEAR     64  49  58 S6        30.29R
ANDREWS        FAIR      70  51  51 S7        30.17R
ARTESIA        NOT AVBL
BIG SPRING     CLEAR     74  54  48 SE8       30.15S
CARLSBAD       CLEAR     66  57  72 S9        30.13R
DRYDEN           N/A     70  61  73 E7        30.13R
FORT STOCKTON  CLEAR     74  56  53 SE10      30.16R
GUAD PASS      CLEAR     67  43  41 SW8       30.30R
HOBBS          CLEAR     66  46  48 S5        30.18S
MARFA          CLEAR     64  52  63 SW3       30.28R
MIDLAND AIRPK  CLEAR     74  52  45 CALM      30.15R
MIDLAND INTL   CLEAR     73  46  38 S6        30.15R
ODESSA         CLEAR     74  47  38 CALM      30.16R
PECOS          CLEAR     69  55  60 E6        30.12R
PRESIDIO       FAIR      74  53  48 N7        30.13S
SEMINOLE       CLEAR     66  52  60 S5        30.17S
SNYDER         CLEAR     72  56  57 SE10      30.12F
WINK           CLEAR     71  52  50 SE7       30.12R
$$
...OTHER STATIONS IN TEXAS...

CITY           SKY/WX    TMP DP  RH WIND       PRES   REMARKS
ABILENE        CLEAR     72  53  51 S8        30.11R
AMARILLO       CLEAR     68  45  43 S9        30.13R
AUSTIN         CLEAR     70  60  70 SE6       30.11R
BROWNSVILLE    CLEAR     72  66  81 CALM      30.12R
CORPUS CHRISTI CLEAR     70  64  81 SE6       30.11R
DALLAS FTW     PTCLDY    76  60  57 S9        30.08R
DEL RIO        CLEAR     73  64  73 SE3       30.09R
EL PASO        CLEAR     71  49  45 E6        30.18R
HOUSTON INT    CLEAR     66  58  75 CALM      30.12R
LUBBOCK        CLEAR     68  51  54 S8        30.13R
SAN ANGELO     CLEAR     72  53  51 S7        30.12R
SAN ANTONIO    CLEAR     75  59  57 SE5       30.12R
WACO           CLEAR     72  60  66 SE8       30.10R
WICHITA FALLS  NOT AVBL
$$
...OTHER LOCATIONS IN NEW MEXICO...

CITY           SKY/WX    TMP DP  RH WIND       PRES   REMARKS
ALAMAGORDO     NOT AVBL
ALBUQUERQUE    CLEAR     67  34  29 S6        30.25R
CANNON AFB     CLEAR     64  41  44 SW8       30.18R
CLOVIS         CLEAR     63  39  42 SW8       30.20R
HOLLOMAN AFB   PTCLDY    71  47  42 S3        30.18R
ROSWELL        CLEAR     65  56  72 S7        30.14R
RUIDOSO        CLEAR     57  39  51 W9        30.37R
SANTA FE       CLEAR     60  27  28 N6        30.29R
TRUTH OR CONSE CLEAR     72  43  35 S8        30.22R
TUCUMCARI      CLEAR     65  40  39 S7        30.12R
$$

USA.gov is the U.S. government's official web portal to all federal, state and local government web resources and services.